Location: Saluda
(35.2377°N, 82.3468°W)
Time: 15:15:07
(UTC+00:00)

Explorer 11/Cluster Stage 4 - Pass Details

Date: 11 October 2022
Orbit: 466 x 1247 km, 28.8° (Epoch: 08 December)

Event Time Altitude Azimuth Distance (km) Brightness Sun altitude
Rises 13:42:47 0° 243° (WSW) 3,722 9.7 24.3°
Reaches altitude 10° 13:45:26 10° 237° (WSW) 2,876 9.3 24.8°
Maximum altitude 13:52:18 46° 167° (SSE) 1,537 9.0 26.0°
Drops below altitude 10° 13:59:57 10° 97° (E) 3,206 11.0 27.3°
Sets 14:03:03 0° 92° (E) 4,183 11.2 27.9°
